Home   Weather   Kragerø   Past weeks

Flag for Norway Past Weather in Kragerø, Norway — Yesterday and Last 2 Weeks

Now
37 °F

Chilly.


Feels Like: 37 °F
Forecast: 36 / 51 °F
Wind: 2 mph from Northwest

Location: Jomfruland Fyr

Current Time: Apr 30, 2017 at 5:20:12 am

Latest Report: Apr 30, 2017 at 4:00 am


Visibility: N/A

Pressure: 30.19 "Hg

Humidity: 74%

Dew Point: 30 °F

Location of KragerøLocation

Past Weather in Kragerø — Graph

°F

Kragerø Temperature Yesterday

Maximum temperature yesterday: 51 °F (at 4:00 pm)
Minimum temperature yesterday: 38 °F (at 7:00 am)
Average temperature yesterday: 44 °F

High & Low Weather Summary for the Past Weeks

 TemperatureHumidityPressure
High55 °F (Apr 21, 1:00 pm)95% (Apr 17, 8:00 am)30.57 "Hg (Apr 17, 8:00 am)
Low29 °F (Apr 16, 5:00 am)22% (Apr 22, 2:00 pm)29.29 "Hg (Apr 24, 10:00 am)
Average41 °F64%29.94 "Hg
* Reported Apr 15 3:00 am — Apr 30 3:00 am, Kragerø, Weather by CustomWeather, © 2017

Note: Actual official high and low records may vary slightly from our data, if they occured in-between our weather recording intervals... More about our weather records

Advertising

Kragerø Weather History for the Previous 24 Hours

Scroll right to see more
 ConditionsComfort  
Time TempWeatherWind HumidityBarometerVisibility
3:00 am
Sun, Apr 30
38 °FChilly.2 mph73%30.19 "HgN/A
2:00 am39 °FChilly.2 mph70%30.19 "HgN/A
1:00 am40 °FQuite cool.2 mph71%30.19 "HgN/A
12:00 am41 °FQuite cool.2 mph72%30.19 "HgN/A
11:00 pm
Sat, Apr 29
40 °FChilly.1 mph72%30.19 "HgN/A
10:00 pm41 °FQuite cool.1 mph70%30.18 "HgN/A
9:00 pm44 °FQuite cool.1 mph66%30.18 "HgN/A
8:00 pm48 °FCool.2 mph53%30.17 "HgN/A
7:00 pm50 °FCool.3 mph37%30.17 "HgN/A
6:00 pm51 °FCool.3 mph44%30.17 "HgN/A
5:00 pm51 °FCool.3 mph40%30.18 "HgN/A
4:00 pm51 °FCool.3 mph48%30.18 "HgN/A
3:00 pm50 °FCool.5 mph48%30.18 "HgN/A
2:00 pm49 °FCool.5 mph51%30.18 "HgN/A
1:00 pm48 °FCool.7 mph54%30.17 "HgN/A
12:00 pm47 °FCool.7 mph56%30.18 "HgN/A
11:00 am44 °FQuite cool.7 mph63%30.18 "HgN/A
10:00 am42 °FQuite cool.8 mph67%30.18 "HgN/A
9:00 am40 °FChilly.8 mph75%30.18 "HgN/A
8:00 am38 °FChilly.7 mph77%30.17 "HgN/A
7:00 am38 °FChilly.8 mph83%30.16 "HgN/A
6:00 am38 °FChilly.8 mph87%30.14 "HgN/A
5:00 am39 °FChilly.10 mph87%30.13 "HgN/A
Weather by CustomWeather, © 2017

See weather overviewHow to use our weather pages